Radiation Dose at Monitoring Post of Fukushima Daini Nuclear Power Station
Date,Time,MP-1(microSv/h),MP-2(microSv/h),MP-3(microSv/h),MP-4(microSv/h),MP-5(microSv/h),MP-6(microSv/h),MP-7(microSv/h),Wind Direction,Wind Velocity(m/s),Rain
2019/05/19,00:00,0.199,0.185,0.302,0.284,0.273,0.150,0.092,south-southwest,6.8,No
2019/05/19,00:10,0.197,0.186,0.302,0.284,0.275,0.151,0.092,south-southwest,6.6,No
2019/05/19,00:20,0.198,0.185,0.300,0.285,0.274,0.150,0.092,south-southwest,7.1,No
2019/05/19,00:30,0.197,0.184,0.302,0.284,0.274,0.150,0.092,south-southwest,7.1,No
2019/05/19,00:40,0.199,0.186,0.302,0.284,0.274,0.150,0.092,south-southwest,7.4,No
2019/05/19,00:50,0.197,0.185,0.304,0.284,0.274,0.151,0.091,south-southwest,7.1,No
2019/05/19,01:00,0.197,0.185,0.300,0.283,0.273,0.151,0.092,south-southwest,7.7,No
2019/05/19,01:10,0.197,0.186,0.302,0.285,0.274,0.151,0.091,south-southwest,7.9,No
2019/05/19,01:20,0.197,0.185,0.299,0.283,0.273,0.151,0.092,south,7.0,No
2019/05/19,01:30,0.197,0.186,0.303,0.285,0.274,0.151,0.092,south-southwest,8.4,No
2019/05/19,01:40,0.198,0.186,0.300,0.283,0.274,0.151,0.092,south-southwest,8.7,No
2019/05/19,01:50,0.197,0.186,0.304,0.284,0.273,0.150,0.091,south-southwest,7.9,No
2019/05/19,02:00,0.198,0.186,0.301,0.283,0.273,0.151,0.092,south,9.0,No
2019/05/19,02:10,0.197,0.186,0.303,0.285,0.275,0.150,0.091,south,8.2,No
2019/05/19,02:20,0.198,0.185,0.300,0.282,0.273,0.151,0.092,south,7.0,No
2019/05/19,02:30,0.198,0.185,0.304,0.284,0.274,0.152,0.091,south,7.0,No
2019/05/19,02:40,0.198,0.185,0.300,0.283,0.273,0.150,0.092,south,6.4,No
2019/05/19,02:50,0.196,0.185,0.302,0.284,0.275,0.151,0.092,south-southwest,6.8,No
2019/05/19,03:00,0.198,0.186,0.301,0.284,0.273,0.150,0.092,south-southwest,7.0,No
2019/05/19,03:10,0.198,0.185,0.302,0.284,0.273,0.151,0.093,south,6.2,No
2019/05/19,03:20,0.198,0.185,0.300,0.284,0.274,0.151,0.092,south-southwest,6.7,No
2019/05/19,03:30,0.197,0.185,0.303,0.285,0.274,0.150,0.093,south-southwest,6.5,No
2019/05/19,03:40,0.198,0.186,0.301,0.282,0.274,0.150,0.091,south,7.4,No
2019/05/19,03:50,0.197,0.185,0.301,0.286,0.274,0.151,0.092,south-southwest,7.1,No
2019/05/19,04:00,0.199,0.185,0.301,0.283,0.273,0.151,0.092,south,6.4,No
2019/05/19,04:10,0.197,0.185,0.303,0.284,0.274,0.151,0.092,south-southwest,6.3,No
2019/05/19,04:20,0.199,0.185,0.301,0.284,0.273,0.151,0.092,south,5.9,No
2019/05/19,04:30,0.197,0.185,0.302,0.285,0.274,0.151,0.092,south,6.3,No
2019/05/19,04:40,0.199,0.185,0.301,0.283,0.274,0.150,0.092,south-southwest,8.2,No
2019/05/19,04:50,0.198,0.185,0.302,0.283,0.274,0.151,0.092,south,7.9,No
2019/05/19,05:00,0.198,0.185,0.300,0.284,0.275,0.151,0.091,south,7.6,No
2019/05/19,05:10,0.196,0.185,0.302,0.282,0.274,0.150,0.092,south,7.6,No
2019/05/19,05:20,0.197,0.187,0.301,0.284,0.274,0.150,0.092,south,8.4,No
2019/05/19,05:30,0.197,0.185,0.301,0.284,0.272,0.151,0.092,south,7.6,No
2019/05/19,05:40,0.198,0.186,0.301,0.285,0.273,0.151,0.092,south,8.4,No
2019/05/19,05:50,0.198,0.186,0.301,0.283,0.273,0.151,0.092,south,7.1,No
2019/05/19,06:00,0.198,0.186,0.302,0.284,0.273,0.151,0.092,south-southwest,6.6,No
2019/05/19,06:10,0.196,0.185,0.301,0.283,0.273,0.151,0.092,south-southwest,6.8,No
2019/05/19,06:20,0.198,0.186,0.301,0.284,0.275,0.151,0.092,south-southwest,6.2,No
2019/05/19,06:30,0.197,0.186,0.302,0.283,0.273,0.151,0.092,south,7.7,No
2019/05/19,06:40,0.198,0.185,0.301,0.285,0.273,0.151,0.092,south,7.9,No
2019/05/19,06:50,0.197,0.185,0.303,0.283,0.274,0.150,0.092,south,7.1,No
2019/05/19,07:00,0.199,0.185,0.301,0.284,0.272,0.150,0.092,south,7.4,No
2019/05/19,07:10,0.197,0.184,0.301,0.281,0.275,0.150,0.092,south,7.0,No
2019/05/19,07:20,0.198,0.186,0.300,0.285,0.272,0.151,0.092,south,6.5,No
2019/05/19,07:30,0.198,0.185,0.302,0.284,0.274,0.150,0.093,south,6.2,No
2019/05/19,07:40,0.196,0.187,0.301,0.283,0.273,0.150,0.091,south,5.9,No
2019/05/19,07:50,0.198,0.184,0.303,0.285,0.271,0.151,0.091,south,6.0,No
2019/05/19,08:00,0.197,0.186,0.301,0.283,0.274,0.150,0.092,south,7.0,No
2019/05/19,08:10,0.198,0.186,0.301,0.284,0.271,0.151,0.091,south,7.1,No
2019/05/19,08:20,0.198,0.183,0.302,0.283,0.272,0.151,0.092,south-southeast,7.3,No
2019/05/19,08:30,0.196,0.185,0.298,0.282,0.274,0.151,0.092,south,8.7,No
2019/05/19,08:40,0.197,0.186,0.302,0.286,0.273,0.151,0.092,south-southeast,8.4,No
2019/05/19,08:50,0.199,0.184,0.300,0.282,0.271,0.151,0.091,south,9.2,No
2019/05/19,09:00,0.196,0.185,0.301,0.283,0.274,0.150,0.092,south-southeast,9.8,No
2019/05/19,09:10,0.198,0.186,0.303,0.284,0.272,0.151,0.091,south,9.8,Yes
2019/05/19,09:20,0.197,0.185,0.300,0.283,0.272,0.149,0.091,south-southeast,10.6,No
2019/05/19,09:30,0.196,0.186,0.302,0.286,0.275,0.150,0.091,south-southeast,9.8,No
2019/05/19,09:40,0.197,0.186,0.301,0.285,0.271,0.150,0.092,south-southeast,8.4,No
2019/05/19,09:50,0.198,0.185,0.300,0.281,0.271,0.150,0.092,south-southeast,9.3,No
2019/05/19,10:00,0.196,0.185,0.303,0.284,0.274,0.150,0.092,south,9.6,No
2019/05/19,10:10,0.196,0.185,0.301,0.286,0.272,0.151,0.091,south-southeast,10.1,No
2019/05/19,10:20,0.199,0.186,0.299,0.283,0.270,0.150,0.092,south-southeast,8.7,No
2019/05/19,10:30,0.197,0.184,0.301,0.282,0.273,0.149,0.092,south-southeast,8.8,No
2019/05/19,10:40,0.195,0.185,0.302,0.285,0.274,0.151,0.091,south,10.0,No
2019/05/19,10:50,0.197,0.185,0.300,0.284,0.271,0.152,0.091,south-southeast,10.6,No
2019/05/19,11:00,0.199,0.184,0.302,0.282,0.272,0.150,0.092,south-southeast,10.7,No
2019/05/19,11:10,0.197,0.185,0.303,0.286,0.275,0.150,0.091,south-southeast,10.4,No
2019/05/19,11:20,0.195,0.184,0.302,0.285,0.275,0.151,0.092,south-southeast,9.8,No
2019/05/19,11:30,0.195,0.186,0.298,0.283,0.273,0.151,0.092,south-southeast,10.7,No
2019/05/19,11:40,0.196,0.186,0.298,0.282,0.270,0.150,0.092,south-southeast,10.4,No
2019/05/19,11:50,0.199,0.185,0.302,0.286,0.272,0.151,0.091,south-southeast,9.0,No
2019/05/19,12:00,0.198,0.185,0.303,0.286,0.275,0.151,0.092,south,9.8,No
2019/05/19,12:10,0.197,0.186,0.300,0.284,0.273,0.150,0.092,south-southeast,10.9,No
2019/05/19,12:20,0.196,0.185,0.300,0.282,0.272,0.151,0.091,south-southeast,12.2,No
2019/05/19,12:30,0.195,0.185,0.299,0.283,0.271,0.151,0.091,south-southeast,9.2,No
2019/05/19,12:40,0.198,0.185,0.300,0.285,0.273,0.151,0.092,south-southeast,9.5,No
2019/05/19,12:50,0.199,0.186,0.304,0.284,0.274,0.151,0.091,south-southeast,10.4,No
2019/05/19,13:00,0.198,0.186,0.302,0.283,0.273,0.151,0.092,south-southeast,9.8,No
2019/05/19,13:10,0.196,0.184,0.301,0.284,0.271,0.151,0.092,south-southeast,10.7,No
2019/05/19,13:20,0.196,0.186,0.300,0.288,0.275,0.151,0.092,south-southeast,8.4,No
2019/05/19,13:30,0.199,0.186,0.304,0.285,0.276,0.150,0.091,south-southeast,10.4,No
2019/05/19,13:40,0.198,0.184,0.303,0.282,0.272,0.151,0.092,south-southeast,11.2,No
2019/05/19,13:50,0.198,0.185,0.301,0.283,0.272,0.151,0.092,south-southeast,10.4,No
2019/05/19,14:00,0.196,0.186,0.299,0.286,0.272,0.151,0.093,south-southeast,9.5,No
2019/05/19,14:10,0.196,0.186,0.298,0.285,0.276,0.150,0.091,south-southeast,10.0,No
2019/05/19,14:20,0.198,0.185,0.303,0.284,0.274,0.152,0.092,south-southeast,10.0,No
2019/05/19,14:30,0.199,0.186,0.303,0.285,0.272,0.151,0.092,south-southeast,11.0,No
2019/05/19,14:40,0.198,0.186,0.302,0.286,0.271,0.151,0.091,south-southeast,10.0,No
2019/05/19,14:50,0.197,0.186,0.300,0.283,0.274,0.151,0.092,south-southeast,10.4,No
2019/05/19,15:00,0.195,0.185,0.299,0.285,0.275,0.152,0.092,south,10.1,No
2019/05/19,15:10,0.198,0.188,0.304,0.287,0.273,0.151,0.092,south-southeast,9.5,No
2019/05/19,15:20,0.199,0.186,0.302,0.285,0.274,0.151,0.092,south-southeast,10.3,No
2019/05/19,15:30,0.199,0.185,0.300,0.288,0.276,0.151,0.092,south-southeast,9.6,No
2019/05/19,15:40,0.196,0.187,0.303,0.285,0.273,0.151,0.092,south-southeast,9.6,No
2019/05/19,15:50,0.198,0.186,0.302,0.285,0.271,0.149,0.093,south-southeast,8.6,No
2019/05/19,16:00,0.200,0.186,0.303,0.287,0.275,0.152,0.092,south,11.0,No
2019/05/19,16:10,0.198,0.186,0.306,0.284,0.275,0.151,0.092,south-southeast,9.3,No
2019/05/19,16:20,0.196,0.186,0.302,0.287,0.272,0.150,0.091,south,10.4,No
2019/05/19,16:30,0.199,0.187,0.304,0.284,0.274,0.150,0.092,south-southeast,10.9,No
2019/05/19,16:40,0.199,0.186,0.304,0.286,0.275,0.149,0.092,south,11.1,No
2019/05/19,16:50,0.197,0.187,0.302,0.285,0.274,0.151,0.092,south-southeast,11.0,No
2019/05/19,17:00,0.200,0.186,0.304,0.286,0.276,0.152,0.092,south-southeast,10.4,No
2019/05/19,17:10,0.199,0.186,0.302,0.286,0.273,0.150,0.092,south-southeast,9.6,No
2019/05/19,17:20,0.198,0.186,0.304,0.286,0.274,0.151,0.092,south-southeast,9.8,No
2019/05/19,17:30,0.199,0.186,0.302,0.287,0.275,0.150,0.092,south-southeast,10.1,No
2019/05/19,17:40,0.198,0.187,0.304,0.285,0.273,0.152,0.092,south,11.0,No
2019/05/19,17:50,0.201,0.186,0.304,0.287,0.275,0.152,0.091,south-southeast,10.1,No
2019/05/19,18:00,0.198,0.187,0.303,0.285,0.273,0.151,0.092,south-southeast,10.4,No
2019/05/19,18:10,0.198,0.186,0.303,0.287,0.276,0.151,0.092,south-southeast,10.7,No
2019/05/19,18:20,0.199,0.187,0.302,0.286,0.273,0.151,0.092,south,10.3,No
2019/05/19,18:30,0.198,0.186,0.302,0.288,0.276,0.151,0.092,south,9.5,No
2019/05/19,18:40,0.198,0.187,0.303,0.284,0.274,0.151,0.093,south,10.6,No
2019/05/19,18:50,0.198,0.186,0.303,0.286,0.277,0.152,0.091,south,9.5,No
2019/05/19,19:00,0.199,0.187,0.304,0.286,0.274,0.151,0.092,south,9.6,No
2019/05/19,19:10,0.197,0.185,0.304,0.286,0.276,0.152,0.092,south,8.8,No
2019/05/19,19:20,0.198,0.186,0.304,0.286,0.274,0.151,0.093,south,8.5,No
2019/05/19,19:30,0.198,0.187,0.305,0.286,0.277,0.151,0.092,south,7.3,No
2019/05/19,19:40,0.198,0.187,0.303,0.285,0.274,0.151,0.092,south,8.2,No
2019/05/19,19:50,0.197,0.187,0.303,0.286,0.275,0.152,0.092,south,8.1,No
2019/05/19,20:00,0.200,0.187,0.303,0.286,0.274,0.151,0.092,south,7.9,No
2019/05/19,20:10,0.198,0.187,0.304,0.286,0.275,0.152,0.092,south,8.5,No
2019/05/19,20:20,0.199,0.187,0.303,0.284,0.275,0.151,0.092,south,8.4,No
2019/05/19,20:30,0.198,0.187,0.303,0.287,0.275,0.152,0.092,south,8.4,No
2019/05/19,20:40,0.200,0.186,0.302,0.285,0.274,0.151,0.093,south,8.2,No
2019/05/19,20:50,0.197,0.186,0.305,0.287,0.275,0.151,0.092,south,8.5,No
2019/05/19,21:00,0.199,0.186,0.303,0.285,0.275,0.152,0.092,south,6.8,No
2019/05/19,21:10,0.198,0.187,0.305,0.286,0.273,0.151,0.093,south,7.8,No
2019/05/19,21:20,0.198,0.186,0.302,0.284,0.274,0.152,0.093,south,7.6,No
2019/05/19,21:30,0.198,0.188,0.304,0.287,0.274,0.151,0.092,south,6.8,No
2019/05/19,21:40,0.199,0.186,0.302,0.286,0.275,0.151,0.092,south,7.0,No
2019/05/19,21:50,0.199,0.186,0.305,0.286,0.274,0.151,0.092,south,7.3,No
2019/05/19,22:00,0.198,0.186,0.301,0.287,0.276,0.151,0.093,south,7.4,No
2019/05/19,22:10,0.199,0.188,0.304,0.285,0.274,0.151,0.092,south,7.3,No
2019/05/19,22:20,0.198,0.186,0.303,0.286,0.277,0.152,0.092,south,7.8,No
2019/05/19,22:30,0.199,0.187,0.305,0.286,0.273,0.151,0.092,south,6.8,No
2019/05/19,22:40,0.199,0.187,0.302,0.286,0.275,0.152,0.092,south,7.6,No
2019/05/19,22:50,0.201,0.186,0.305,0.286,0.273,0.149,0.092,south,8.4,No
2019/05/19,23:00,0.199,0.187,0.302,0.285,0.275,0.152,0.092,south,8.1,No
2019/05/19,23:10,0.200,0.186,0.305,0.286,0.272,0.151,0.092,south,7.7,No
2019/05/19,23:20,0.198,0.186,0.301,0.286,0.276,0.151,0.092,south,7.0,No
2019/05/19,23:30,0.200,0.185,0.304,0.287,0.274,0.151,0.092,south,7.0,No
2019/05/19,23:40,0.197,0.187,0.302,0.285,0.275,0.151,0.093,south,6.4,No
2019/05/19,23:50,0.199,0.185,0.305,0.285,0.273,0.151,0.091,south,6.7,No
